Tracking 30995 objects as of 5-Jul-2025
HD Live streaming from Space Station
objects crossing your sky now

STARLINK-31688

Track STARLINK-31688 now!
10-day predictions
STARLINK-31688 is classified as:


NORAD ID: 59386
Int'l Code: 2024-062N
Perigee: 481.6 km
Apogee: 483.2 km
Inclination: 53.2 °
Period: 94.1 minutes
Semi major axis: 6853 km
RCS: Unknown
Launch date: April 2, 2024
Source: United States (US)
Launch site: AIR FORCE WESTERN TEST RANGE (AFWTR)
Your satellite tracking list
Your tracking list is empty




NASA's NSSDC Master Catalog

Two Line Element Set (TLE):
1 59386U 24062N   25186.60185325  .00000140  00000-0  16840-4 0  9995
2 59386  53.1611 326.0274 0001211  73.8126 286.3008 15.30189149 71765
Source of the keplerian elements: AFSPC